Wind_Speed
11 10 8 8 9 10 9 7 4 5 5 7 9 8 11 14 15 14 7 2 2 1 4 3 2 2 2 6 5 15 14 11 8 4 3 8 17 21 24 28 26 25 24 23 26 23 21 20 20 21 21 22 22 22 23 23 24 24 23 23 24 24 24 22 19 17 16 14 13 13 14 15 15 16 16 15 14 13 13 12 12 12 12 11 11 11 10 11 12 11 11 11 12 12 11 11 10
10 9 9 9 10 9 5 5 5 5 7 8 8 10 12 13 16 14 6 3 4 4 2 2 2 2 2 8 3 11 12 12 10 8 8 15 22 22 23 23 23 24 23 23 24 22 20 20 20 21 21 21 21 22 23 24 24 24 23 24 25 24 22 20 18 17 15 13 13 13 13 14 15 16 16 16 14 14 14 13 12 11 10 10 10 10 9 10 10 10 10 11 11 11 10 10 10
11 10 11 9 9 8 4 5 7 6 8 8 8 11 13 15 12 8 6 2 6 8 3 3 2 3 1 4 4 8 9 11 11 11 10 17 16 18 22 21 22 22 22 23 21 21 19 20 22 21 21 21 22 23 24 24 24 24 23 24 25 23 20 19 18 16 14 14 13 13 13 14 15 16 15 15 15 14 14 13 12 11 11 10 10 9 9 10 9 9 10 10 10 10 10 9 9
12 12 12 9 6 6 5 5 7 8 8 7 8 10 14 16 9 2 1 5 8 5 2 3 3 2 4 5 7 10 9 8 10 10 8 14 15 19 23 21 23 22 21 21 19 21 19 20 23 21 21 21 22 23 24 24 24 23 23 25 24 21 19 18 17 16 14 14 13 13 13 14 15 15 14 14 14 13 13 12 12 11 11 11 11 10 9 10 10 10 10 10 10 9 9 9 10
11 13 13 10 5 3 5 5 6 8 8 9 8 5 6 10 7 5 7 7 4 1 1 2 3 3 9 11 7 5 7 6 8 9 10 15 20 23 23 23 23 21 21 20 19 19 19 22 23 21 21 21 22 23 23 23 23 23 24 24 22 20 19 18 17 15 14 13 13 13 13 13 14 14 14 13 13 12 12 11 11 11 11 10 11 10 10 10 10 10 9 9 9 9 10 11 12
12 13 12 11 6 5 5 6 8 8 11 12 10 9 9 7 4 6 9 4 1 1 3 1 2 5 9 8 8 7 7 3 5 9 12 18 23 25 23 23 22 21 21 20 19 18 20 23 23 22 22 22 22 23 23 23 24 24 24 23 21 20 19 18 16 15 14 14 14 13 13 13 13 13 13 13 12 12 12 12 11 11 10 9 10 11 11 10 9 9 9 9 9 10 10 11 11
12 9 7 8 5 5 6 7 9 8 12 13 12 14 5 10 8 5 6 2 3 4 5 5 4 8 8 6 8 9 12 5 5 7 13 20 24 24 22 20 22 22 20 20 19 18 21 23 23 23 23 22 22 23 23 23 24 24 24 23 21 20 19 18 16 15 15 14 14 14 14 13 13 14 13 12 11 11 11 11 11 11 10 9 9 9 10 10 9 8 8 8 8 9 9 8 8
15 8 3 6 5 5 7 8 10 9 11 13 14 13 2 10 7 1 1 3 4 5 7 7 6 9 8 8 7 7 13 9 9 11 16 24 24 23 21 19 22 22 21 21 20 21 23 24 23 23 23 23 23 23 23 24 26 25 24 22 20 19 18 17 16 16 15 15 13 13 13 13 13 14 13 12 11 10 9 9 9 9 10 10 9 9 9 9 8 8 8 7 7 8 7 5 5
13 9 4 6 6 6 8 9 10 11 13 14 14 8 5 7 2 3 6 3 2 2 7 9 7 8 10 12 9 5 10 11 13 14 17 23 23 21 20 18 20 21 22 22 22 23 23 24 24 24 24 23 24 23 23 25 25 24 23 21 20 19 17 17 17 16 16 14 12 12 12 12 13 12 12 13 12 10 8 7 8 8 9 10 10 8 8 9 8 9 8 6 6 6 4 4 4
8 7 5 5 6 8 8 9 9 11 14 14 14 6 4 4 3 7 8 8 4 4 6 7 7 12 14 11 7 5 9 11 13 14 17 21 20 19 18 19 20 22 23 22 24 23 22 25 25 24 25 23 23 23 24 25 24 23 21 20 19 18 17 17 17 16 15 13 12 11 11 12 13 12 11 12 12 10 8 7 8 8 8 9 10 8 8 8 8 9 7 6 6 6 4 4 3
6 6 6 6 7 8 8 8 9 10 12 15 11 4 3 2 1 6 10 9 8 6 7 6 8 16 15 9 5 5 9 12 12 14 16 18 18 17 17 19 21 23 24 22 24 23 20 23 25 25 24 23 23 23 24 23 22 21 19 18 18 17 18 18 17 15 14 13 13 12 12 13 14 12 11 12 11 10 8 7 8 8 8 9 9 7 7 6 7 8 6 5 5 5 4 2 2
6 6 6 7 7 7 9 9 10 11 12 14 7 4 3 4 2 7 8 9 10 6 8 6 10 15 10 8 5 6 10 11 13 14 16 17 16 17 17 19 22 23 24 23 25 24 21 21 22 23 23 23 22 23 22 21 20 18 18 18 18 18 19 18 16 14 14 14 14 13 12 13 14 12 12 12 10 9 8 7 8 8 8 9 8 7 7 6 6 7 5 4 4 4 3 1 1
7 7 7 7 8 8 10 10 10 11 9 8 4 3 5 5 4 9 8 10 9 8 9 6 15 12 8 7 6 7 10 12 14 15 16 16 16 17 17 20 22 23 24 24 25 25 22 20 20 21 22 21 21 21 21 20 18 17 18 18 19 19 18 16 15 14 13 13 13 14 14 12 13 12 11 11 10 9 7 7 8 8 8 7 7 6 6 6 6 6 6 5 4 4 4 3 2
7 7 7 7 8 9 10 10 10 9 7 1 4 7 9 4 6 6 8 10 9 11 9 11 18 12 8 6 6 6 10 15 14 15 16 15 17 18 19 21 22 23 23 22 24 24 22 21 20 21 21 20 19 19 19 17 17 18 19 20 20 19 17 15 14 14 12 12 13 14 13 11 11 11 10 10 9 8 7 7 7 7 6 6 6 5 5 5 5 5 6 6 5 5 5 4 4
8 6 7 7 7 9 9 9 10 9 6 5 5 7 8 5 5 4 7 9 8 9 3 15 15 7 8 6 6 8 13 18 16 15 15 15 17 19 20 20 21 22 21 21 22 22 22 22 21 21 21 20 18 18 17 17 19 19 19 19 18 17 16 15 14 13 11 12 13 13 12 11 10 9 9 9 8 8 7 7 7 6 5 5 5 4 4 4 4 5 5 6 6 6 6 6 5
8 6 6 7 8 10 8 10 10 10 5 9 3 3 3 6 5 5 7 7 10 4 6 12 9 5 8 7 8 16 20 20 17 15 15 16 19 20 20 20 21 21 20 19 19 21 22 23 21 20 20 20 19 19 18 19 20 20 19 17 16 16 15 15 14 12 12 13 14 12 12 11 9 8 8 8 7 6 6 6 6 5 5 4 3 2 2 2 3 4 5 6 7 7 6 6 6
7 7 7 7 9 10 8 11 8 7 5 7 2 1 1 6 6 4 6 8 11 3 12 12 11 8 8 6 12 23 23 21 18 17 16 17 19 20 19 20 19 18 21 17 16 22 24 22 20 19 20 20 21 21 21 20 21 20 18 16 16 15 14 14 13 13 13 14 13 12 12 10 9 9 8 7 6 5 5 6 6 6 5 4 2 2 2 1 1 2 2 3 5 6 6 6 6
8 6 8 8 8 10 10 12 7 5 5 4 5 5 3 9 5 4 5 8 8 5 12 13 13 8 6 8 17 24 22 21 19 17 16 15 17 17 15 18 17 16 21 18 17 21 22 22 21 20 21 22 21 21 22 21 20 19 18 17 16 15 15 14 13 14 15 14 12 12 12 11 10 10 8 7 6 5 5 6 6 6 5 4 3 2 3 2 2 1 1 2 3 5 6 6 5
8 7 8 8 10 12 13 13 6 4 6 5 4 1 5 6 1 4 5 9 7 6 10 11 12 10 6 12 20 21 21 20 17 16 15 14 13 15 13 14 16 18 20 17 18 19 22 24 21 20 22 23 21 21 21 19 19 19 18 17 17 17 16 15 14 15 15 13 13 12 11 10 10 9 8 6 5 5 6 6 7 6 6 5 3 3 3 2 2 2 2 2 2 4 6 7 5
9 8 8 9 13 14 16 14 7 5 8 6 3 1 5 1 2 1 4 9 10 9 8 8 9 10 9 13 16 17 19 17 16 15 13 11 17 16 11 15 17 17 17 16 19 21 22 23 21 22 24 23 21 20 19 19 19 19 19 19 18 17 17 17 16 15 14 13 13 12 11 10 9 9 7 6 5 6 6 7 7 6 6 5 4 4 3 2 0 1 2 2 3 3 3 5 7
8 9 9 12 14 14 17 11 7 5 3 5 3 1 6 1 1 2 5 6 4 5 8 13 10 9 10 11 13 14 14 14 15 15 12 18 18 16 16 18 17 14 15 17 21 21 20 22 23 25 24 24 23 21 20 19 19 19 20 21 18 16 18 18 16 14 13 14 14 12 11 11 9 9 8 6 7 7 7 7 7 6 6 5 5 4 3 3 1 1 1 1 1 3 7 9 11
8 11 13 16 16 14 13 7 6 6 2 4 5 6 5 2 2 5 5 3 2 2 2 14 14 10 12 11 12 13 11 13 12 11 18 16 13 17 18 18 15 13 14 17 19 18 21 24 24 25 25 25 24 22 21 20 18 18 19 20 19 16 17 18 15 14 15 15 13 11 13 12 10 9 8 7 7 8 8 8 8 7 6 5 5 6 6 5 3 4 5 5 6 7 9 11 11
9 11 14 17 18 16 14 9 3 3 3 5 10 10 5 3 6 6 5 4 9 7 9 10 17 12 13 11 10 13 11 10 9 11 16 16 16 14 16 19 16 16 16 16 16 16 22 23 23 26 25 24 24 22 21 21 20 18 18 19 19 17 16 15 15 16 16 15 13 12 14 13 11 11 9 9 8 8 10 10 9 8 8 7 8 8 6 7 7 8 8 8 10 9 9 10 9
12 12 14 16 17 16 14 10 2 3 6 10 11 9 3 7 9 2 4 6 10 11 9 9 15 13 13 10 9 11 10 9 9 14 20 18 18 20 21 19 17 18 18 16 16 19 23 23 25 25 22 23 24 21 19 20 19 17 18 18 17 16 15 15 16 17 16 15 13 14 15 12 12 12 10 10 9 9 11 11 10 8 9 10 10 10 6 7 10 10 8 8 9 8 7 6 6
14 14 14 14 15 15 14 12 5 2 7 8 11 9 3 10 10 3 5 9 11 10 13 13 14 14 13 11 9 8 7 9 10 13 16 14 16 21 20 16 18 20 19 17 17 22 24 26 27 23 22 23 22 21 19 17 17 17 19 17 16 16 15 15 17 16 16 16 14 14 13 10 11 11 11 12 10 10 9 10 10 8 10 12 12 11 9 8 9 9 8 8 8 7 6 4 5
12 15 15 15 15 14 10 10 11 7 6 6 9 10 7 11 11 6 6 8 12 11 14 16 16 15 12 11 9 11 7 5 10 10 12 15 16 16 15 15 18 18 17 18 20 24 23 25 25 22 21 21 20 20 17 16 18 18 18 15 15 16 15 16 17 17 16 15 14 13 12 10 10 10 11 12 10 9 9 8 9 8 8 11 12 11 11 10 9 9 8 8 7 6 6 6 7
11 16 15 17 17 15 11 9 11 10 9 9 9 11 11 12 11 5 7 10 11 11 12 13 17 17 10 10 13 12 7 7 8 12 13 15 15 14 14 14 16 15 16 20 22 24 22 21 21 21 20 18 20 20 18 19 19 17 15 13 14 15 15 16 16 16 15 14 14 13 11 10 10 9 10 10 8 7 7 6 7 7 7 9 11 11 11 11 10 9 8 8 6 6 7 7 9
15 16 11 13 16 16 16 11 10 11 10 12 11 13 12 11 12 8 10 13 10 10 10 11 14 16 11 11 13 10 11 10 9 12 14 14 13 13 13 14 16 17 16 18 23 25 25 23 21 22 21 20 22 21 21 21 17 14 14 13 15 15 13 13 13 13 12 12 14 13 10 11 12 12 10 9 9 7 6 6 7 7 6 8 9 9 8 8 9 8 7 7 6 6 6 5 7
16 15 10 12 14 15 18 13 11 12 10 12 12 12 11 12 13 11 14 13 11 10 11 12 10 13 15 13 14 11 10 11 11 10 13 13 12 13 13 15 18 18 15 16 21 25 26 27 26 25 23 21 22 20 20 18 14 14 15 14 14 13 10 9 9 10 11 10 12 11 10 14 16 15 12 11 10 9 9 9 9 8 7 8 7 6 6 6 7 6 6 6 5 5 4 4 5
13 13 10 11 10 11 16 14 13 14 10 11 10 8 9 12 15 13 15 14 12 11 12 10 10 10 15 14 12 10 11 10 10 11 13 12 11 12 13 17 18 17 16 16 19 20 23 28 27 24 22 21 20 19 18 15 12 13 13 13 12 10 8 7 5 6 7 7 9 10 12 15 15 13 13 13 11 9 10 11 10 9 8 8 7 6 7 7 6 5 4 5 5 4 3 4 4
11 11 10 9 8 9 14 15 15 14 11 12 11 7 8 12 16 16 14 10 11 10 11 9 9 8 13 13 11 10 10 9 10 12 14 12 12 12 15 18 17 16 17 16 18 18 20 26 25 22 21 19 19 19 17 14 12 12 11 11 12 9 6 6 4 3 3 4 7 9 11 11 10 9 10 11 11 10 10 11 10 9 9 8 7 7 7 6 6 6 5 4 4 4 3 4 4
8 9 9 9 9 10 13 16 18 17 12 15 14 8 8 11 14 18 16 12 13 12 10 10 9 10 15 11 10 9 8 8 9 11 12 12 12 12 16 19 17 18 20 18 18 17 18 22 23 23 21 18 19 18 16 14 12 11 11 10 11 8 5 5 5 4 4 5 7 7 7 7 7 9 8 8 10 9 8 9 9 9 8 7 7 7 6 5 4 4 5 4 2 1 3 5 5
8 8 8 10 11 10 12 15 19 20 15 16 16 10 7 11 14 15 17 17 17 15 12 13 10 13 16 11 10 8 7 8 8 10 11 12 13 14 16 20 19 19 21 18 18 17 17 19 20 23 24 22 20 17 15 14 12 11 10 10 9 8 6 6 6 6 5 5 6 6 7 6 6 8 7 6 9 10 8 8 8 8 7 7 7 6 5 4 4 2 2 2 0 1 2 4 4
7 8 8 11 14 11 10 13 16 21 17 15 16 12 10 12 13 12 16 21 18 14 14 14 10 14 13 11 10 9 9 8 8 9 11 11 12 15 19 21 19 21 22 18 18 18 17 18 19 20 20 21 20 18 14 12 11 9 9 10 9 7 6 6 7 7 6 6 5 6 7 6 6 6 5 6 9 9 8 8 8 8 8 7 7 6 5 3 3 3 2 0 0 0 1 2 2
9 9 9 9 13 14 13 14 13 20 18 15 15 14 14 16 14 13 11 19 19 15 13 12 10 16 13 11 11 10 10 10 9 11 13 11 11 17 22 21 21 22 20 17 17 18 18 18 18 15 14 17 19 20 17 13 10 9 9 10 8 7 6 6 7 7 6 7 6 7 7 6 7 5 4 5 7 7 7 7 8 9 8 7 7 6 5 4 3 3 3 2 0 0 1 1 1
12 9 10 11 11 12 14 15 12 20 17 15 14 14 15 17 16 11 2 10 12 13 11 10 10 16 14 11 10 10 11 11 10 12 15 11 9 18 23 23 22 20 18 16 17 17 17 17 18 15 12 13 16 18 18 15 13 11 10 8 7 7 7 7 7 7 7 7 6 7 7 7 7 6 5 4 5 6 6 6 6 7 7 7 7 6 4 4 3 3 3 2 1 1 2 2 1
15 12 12 13 12 11 15 15 12 17 14 13 14 14 15 14 15 13 9 10 10 10 9 9 9 13 14 14 12 11 10 10 12 14 14 10 9 18 23 24 22 19 18 17 17 16 15 16 17 17 14 12 13 15 15 14 13 12 10 9 8 7 8 7 6 7 7 7 7 8 8 8 8 7 6 5 5 4 5 6 6 5 6 6 6 5 4 4 3 2 2 2 2 3 4 3 1
14 13 13 11 12 11 14 14 12 15 9 10 14 14 14 13 14 12 12 15 13 11 9 10 11 11 12 14 16 13 10 10 12 9 7 6 11 19 23 24 22 18 17 18 18 17 16 15 15 15 15 13 13 14 14 12 11 11 10 9 8 7 7 7 6 6 6 6 7 8 8 8 8 8 7 6 6 4 4 5 6 5 5 5 5 5 4 4 4 3 3 3 2 3 5 4 4
11 9 12 10 8 10 12 14 13 12 7 8 13 13 12 12 14 13 13 14 13 12 11 11 11 11 11 13 16 13 12 12 9 8 3 11 14 20 22 23 20 18 18 19 19 20 19 17 16 16 15 13 14 15 13 11 11 11 9 7 6 7 8 8 8 7 6 7 7 7 7 7 8 8 7 7 7 6 4 4 5 5 5 5 6 5 4 4 3 3 4 4 3 3 3 4 5
8 8 8 9 7 9 7 6 7 8 4 6 8 9 9 11 13 12 12 11 12 13 13 13 11 10 10 11 16 13 12 11 10 5 9 13 13 19 20 18 18 20 19 19 20 20 19 19 18 17 14 13 15 15 12 12 13 11 9 7 6 9 11 11 9 7 7 7 6 6 6 6 7 6 7 7 7 6 5 5 5 5 5 7 7 6 5 4 3 4 6 5 5 5 3 3 3
8 10 10 9 10 11 7 7 7 7 6 5 6 8 6 10 13 10 10 13 12 13 13 13 11 11 7 12 16 12 10 11 7 10 11 8 12 17 18 15 18 20 19 18 18 17 18 20 19 17 15 16 17 14 12 14 14 10 10 8 8 11 11 8 7 7 5 5 6 5 5 5 6 6 6 7 7 6 6 5 5 5 4 5 6 5 4 4 3 5 5 4 5 7 6 4 3
8 12 14 15 15 14 10 8 7 4 5 7 6 8 6 9 11 9 10 12 10 10 11 12 11 11 9 14 14 12 13 11 9 13 8 7 11 17 17 15 18 19 19 19 19 20 19 18 18 18 19 20 18 15 15 16 14 12 12 8 8 8 6 5 5 5 4 5 6 5 5 5 5 6 7 7 7 7 6 5 5 5 5 6 5 5 5 5 5 6 3 3 4 5 6 5 4
8 10 14 18 19 18 15 6 7 4 5 6 8 8 6 6 11 13 13 11 11 10 11 11 12 11 10 13 12 13 11 10 9 9 7 9 10 15 13 12 19 20 21 22 23 24 21 19 19 20 21 19 16 15 16 16 15 14 11 5 4 4 4 5 4 4 4 6 7 5 5 5 4 5 6 7 8 8 9 7 6 5 5 7 8 8 7 7 8 7 5 5 6 6 5 4 4
8 10 13 17 18 17 16 10 6 6 6 6 9 9 7 6 10 14 15 13 13 13 12 10 11 8 11 10 11 14 9 8 7 7 6 7 8 16 11 8 16 23 25 23 22 24 23 23 23 21 19 17 15 15 16 15 13 13 9 4 4 6 6 7 5 4 5 6 6 5 5 5 5 5 5 7 9 9 10 8 7 7 6 7 8 9 8 7 8 8 8 9 9 8 7 6 5
10 13 13 13 15 16 14 9 6 6 5 5 8 9 7 6 7 10 13 14 13 14 13 12 12 6 13 11 9 12 9 8 8 6 3 8 14 18 16 13 15 21 25 22 20 23 25 24 23 22 20 17 16 15 15 13 10 11 9 7 7 6 8 8 5 5 6 6 6 5 5 6 5 5 5 6 7 8 9 9 8 8 7 6 8 10 9 9 10 10 11 11 11 11 10 8 8
11 14 14 9 11 13 11 8 7 6 5 6 7 7 6 6 6 6 9 12 13 12 11 11 12 9 16 14 12 12 9 8 8 2 8 16 20 19 18 17 15 16 21 23 24 26 26 25 25 25 21 19 18 15 15 15 12 13 11 9 7 10 9 8 7 7 7 6 5 5 6 6 5 5 6 6 7 7 9 11 9 7 7 8 10 10 10 11 11 12 13 13 13 13 12 11 11
12 12 10 9 8 9 9 7 7 6 5 8 10 9 8 8 7 7 7 9 10 9 10 12 12 11 15 14 13 14 11 9 6 8 13 18 21 23 19 13 13 18 21 23 27 28 28 27 28 27 23 21 20 18 18 17 16 16 12 9 10 12 10 9 9 8 8 7 6 6 6 5 5 5 5 6 6 7 9 11 10 8 8 9 10 11 11 12 11 12 13 14 14 14 14 14 13
11 8 6 7 6 6 7 6 6 6 5 8 12 13 11 8 5 4 5 7 10 9 8 9 10 12 11 10 12 12 10 7 9 13 13 13 17 21 21 16 18 22 22 22 25 28 29 29 29 28 26 25 24 24 22 20 19 17 13 12 13 12 10 10 9 9 8 7 7 6 6 6 6 6 5 6 7 7 8 10 10 10 9 10 11 11 11 11 11 12 13 14 14 14 14 15 14
9 7 6 7 5 6 6 6 6 6 6 9 11 11 10 6 1 1 1 1 4 7 5 6 11 13 11 10 11 11 8 6 11 13 11 11 12 14 18 22 25 25 25 26 30 31 31 31 32 32 31 30 28 28 25 22 21 18 14 15 15 13 12 11 10 9 8 7 7 7 7 7 6 6 6 7 7 8 8 9 10 10 10 10 11 11 11 12 12 13 13 14 14 14 14 15 15
9 7 7 6 5 6 6 6 6 6 7 9 7 5 4 2 3 2 5 5 5 3 7 7 10 13 12 11 11 10 9 8 10 11 10 11 12 14 15 17 22 25 26 29 32 33 33 32 33 35 36 34 32 31 28 25 23 20 18 17 17 15 13 12 10 9 8 8 7 7 7 8 8 8 7 7 8 9 9 10 10 10 10 10 11 11 12 13 13 13 14 14 14 14 15 15 15
10 9 8 7 5 5 5 5 5 4 5 6 5 3 2 2 2 3 7 8 8 7 9 9 10 11 11 11 10 9 10 10 7 8 9 10 14 17 15 13 16 20 22 24 25 26 27 28 32 37 38 35 34 34 31 28 25 22 20 19 19 17 14 12 11 10 9 8 8 8 8 8 9 9 9 9 9 10 10 11 10 11 11 10 10 11 12 13 13 14 14 14 14 14 15 16 15
7 8 9 6 5 5 3 3 2 1 2 3 4 2 2 4 4 1 5 6 7 7 7 9 10 9 9 10 9 10 12 10 5 6 8 7 10 15 16 16 16 16 17 20 23 23 24 26 30 35 35 32 32 32 30 28 25 23 20 19 18 17 16 14 12 11 10 9 9 9 9 9 10 10 10 9 10 10 11 11 10 10 10 10 10 10 11 12 13 13 14 14 14 14 14 15 15
2 6 9 7 8 7 3 3 3 2 3 3 3 2 4 5 5 4 5 4 5 6 6 8 9 8 6 7 10 13 13 9 5 8 8 1 4 13 16 17 19 18 14 14 17 20 22 24 26 29 29 26 28 28 27 25 24 23 21 19 18 17 17 15 13 12 11 10 10 9 9 10 11 11 11 10 10 10 10 10 10 10 10 10 10 10 11 12 12 13 14 14 14 14 14 14 14
4 5 4 4 8 6 3 3 2 2 6 5 5 5 4 4 5 7 8 7 6 7 11 11 9 7 7 9 13 14 13 12 8 9 8 4 6 12 14 13 16 18 16 13 13 14 15 17 20 23 23 22 23 24 23 23 22 22 22 20 18 18 18 16 14 13 12 11 10 10 10 11 11 11 11 10 10 10 10 10 11 10 10 10 10 10 11 11 12 13 13 13 13 13 14 14 14
9 3 2 2 4 4 3 3 2 3 5 4 7 9 6 2 2 9 11 8 7 11 12 10 7 6 6 9 13 14 14 13 9 10 9 7 8 12 14 13 13 13 15 16 14 12 13 14 16 18 19 19 19 20 21 21 20 20 22 21 19 19 18 16 15 15 14 13 11 11 11 11 12 11 11 11 11 10 10 10 10 10 10 10 10 10 10 10 11 12 12 12 12 12 13 13 12
10 5 3 4 3 2 3 2 3 5 4 3 7 7 3 4 4 4 9 11 10 8 8 7 6 5 4 7 9 11 12 12 11 12 12 9 10 12 14 15 14 13 16 18 15 14 15 18 19 20 19 19 19 18 20 21 19 18 21 21 19 18 18 17 17 16 15 14 12 12 12 12 12 11 11 11 11 10 10 10 10 10 10 10 10 9 9 9 9 10 10 10 10 10 10 10 10
7 6 7 6 4 4 4 3 4 5 4 4 5 3 3 5 6 4 12 15 10 7 7 6 3 2 4 7 6 3 8 11 11 12 13 11 12 15 16 16 16 16 17 17 14 13 15 18 20 20 20 20 20 19 20 21 18 18 20 20 19 18 18 17 17 16 15 14 13 13 12 12 11 11 11 11 10 10 10 10 10 10 10 9 9 9 8 8 8 8 8 8 7 8 8 9 9
8 7 7 7 6 5 4 4 4 4 4 4 2 1 3 3 4 5 9 11 12 12 10 8 7 4 4 7 6 5 6 9 11 12 12 12 15 18 18 17 17 18 18 18 16 15 15 16 18 19 18 18 18 19 21 21 19 18 20 20 19 18 17 17 17 17 15 15 14 14 13 12 11 11 10 11 10 10 10 10 10 10 9 9 8 8 8 7 7 8 7 7 5 6 7 7 6
Wind_Direction
211 221 228 238 244 254 243 218 237 214 223 251 244 248 243 240 248 253 243 211 194 311 282 244 8 320 346 335 57 72 44 31 28 22 91 125 125 112 105 112 120 126 126 140 150 150 155 155 154 155 158 160 162 161 158 159 157 153 151 149 147 145 143 143 141 138 137 133 128 129 132 136 137 135 130 124 119 117 113 110 105 104 107 108 112 111 104 103 102 100 101 99 101 102 99 96 95
210 219 230 242 240 247 242 201 245 231 213 241 239 246 250 242 238 241 234 193 140 80 10 66 334 295 12 309 338 74 55 48 67 82 106 131 123 114 116 118 121 123 127 140 145 147 151 151 154 155 156 158 159 159 157 159 156 153 150 149 148 146 144 143 142 140 136 130 128 129 129 129 132 135 133 128 125 122 117 115 111 112 113 113 120 116 108 111 110 105 104 103 105 104 102 100 97
223 236 229 226 231 238 253 215 234 249 228 233 239 231 243 252 240 236 249 231 86 87 92 74 0 301 212 263 347 57 68 58 82 97 117 134 128 122 124 122 123 123 128 134 138 145 147 150 156 155 154 156 158 158 157 158 155 152 150 150 149 146 144 144 142 140 135 129 129 129 127 126 128 133 135 134 133 127 122 121 120 121 120 120 125 122 116 118 117 112 110 108 110 107 104 104 106
233 252 240 216 219 223 237 234 225 249 244 242 245 215 223 239 228 192 145 60 60 88 155 127 102 9 32 50 42 60 76 68 88 102 117 128 129 126 122 121 123 123 129 133 134 144 150 153 156 153 152 155 157 156 157 156 154 152 151 151 149 146 145 144 142 139 133 130 130 130 128 127 127 129 132 134 133 130 127 126 125 124 125 125 125 127 125 124 123 119 116 113 115 113 108 108 109
235 254 248 231 233 229 233 242 232 240 244 251 255 250 251 229 197 134 93 70 72 140 251 130 125 93 62 45 34 55 68 84 91 95 103 115 128 126 120 120 124 127 133 135 134 143 151 153 154 151 151 153 155 155 156 156 155 153 152 152 148 147 146 144 143 139 135 134 134 132 131 127 125 124 125 128 130 129 127 125 123 123 124 127 130 132 131 128 127 123 121 120 120 116 108 105 103
238 251 241 237 262 300 268 243 237 238 241 251 263 302 352 37 43 82 92 74 100 221 277 270 180 113 84 60 53 41 27 84 105 91 108 119 127 125 122 125 128 132 137 137 136 143 147 151 152 150 151 152 153 155 156 155 155 153 152 152 149 148 147 145 144 141 140 138 137 133 131 128 126 124 121 122 123 124 125 124 120 120 121 127 135 135 132 129 131 128 127 129 125 118 110 103 99
230 240 219 224 254 275 258 250 245 244 241 245 258 273 320 60 43 53 93 144 208 207 215 247 187 104 88 98 74 39 27 51 125 107 126 124 124 125 125 130 131 135 140 137 139 147 146 150 150 148 151 151 154 155 155 156 155 154 154 153 151 150 147 147 146 144 142 141 141 136 135 133 131 129 125 123 121 125 130 131 126 126 126 125 131 136 135 133 135 133 135 143 137 128 120 107 100
228 244 214 217 235 227 234 251 249 254 249 243 246 255 315 73 69 23 277 180 184 200 190 220 190 122 100 100 84 48 43 58 113 121 131 123 124 128 129 137 137 140 141 135 143 150 147 150 149 149 152 153 155 154 154 156 156 156 156 154 152 150 148 149 148 146 144 145 145 142 141 139 140 137 132 130 125 127 130 136 137 135 136 131 132 134 135 137 140 138 144 158 151 137 128 113 110
227 242 235 231 238 236 235 245 244 252 255 253 250 237 106 105 151 254 292 301 168 225 201 198 184 132 104 92 92 81 62 73 108 127 134 124 125 132 137 143 141 141 135 133 148 150 147 151 151 151 152 153 155 154 154 156 158 158 156 155 153 150 149 150 149 149 148 147 148 147 146 141 144 142 137 136 130 126 122 134 139 137 141 143 140 136 141 147 151 150 154 166 162 150 137 124 128
222 226 234 242 237 247 242 241 243 246 252 255 248 237 88 116 194 233 259 285 259 260 236 192 151 120 107 103 104 92 89 100 117 134 137 129 130 136 142 144 141 134 128 135 148 147 145 151 151 152 151 150 154 156 157 157 158 157 155 153 152 152 150 150 150 150 150 148 152 153 149 144 145 145 142 140 134 125 120 130 137 137 139 145 146 145 151 155 159 159 158 162 164 161 153 144 144
221 217 230 247 238 247 246 245 243 236 246 250 232 166 76 76 82 241 239 262 260 240 244 229 140 117 112 111 105 99 108 120 136 140 140 138 137 139 140 139 135 129 128 133 141 143 144 148 149 150 151 152 156 158 159 160 159 156 155 154 153 154 151 151 152 152 153 151 156 157 150 147 147 148 146 146 137 124 126 132 135 140 138 140 146 149 150 157 165 165 158 159 169 171 167 146 136
227 221 216 240 245 244 248 254 250 239 233 235 224 122 139 157 191 257 245 247 256 242 238 222 128 115 114 109 111 136 126 135 150 146 146 145 142 142 139 134 130 128 129 132 140 143 140 142 146 147 152 156 159 161 161 161 160 157 154 154 153 152 151 153 156 155 157 154 154 152 147 148 149 150 148 150 141 129 137 141 138 138 137 138 144 148 149 162 171 171 172 179 191 186 192 194 155
234 237 220 233 247 250 256 258 261 261 245 219 187 100 114 130 215 247 245 238 241 248 243 155 117 111 103 108 124 147 141 153 155 149 154 151 149 143 134 131 128 126 129 134 139 137 134 137 144 150 155 158 161 162 164 163 158 154 151 153 154 153 153 155 155 155 157 151 147 144 145 149 148 149 149 151 146 142 152 152 147 138 135 139 147 158 161 171 181 187 190 199 210 206 215 213 205
233 245 246 249 250 255 260 262 268 270 265 233 113 120 121 160 245 255 250 241 228 238 239 118 112 105 98 118 139 156 154 157 155 152 160 156 148 138 131 128 123 125 129 133 133 130 133 135 142 152 157 157 160 163 162 158 149 147 153 158 158 157 157 156 155 156 153 142 141 142 144 146 144 146 148 151 151 156 165 161 154 145 141 143 150 169 176 181 199 213 204 204 220 228 224 208 208
234 248 255 259 261 257 256 260 270 270 278 56 94 130 127 211 240 278 265 258 248 232 201 107 111 111 136 167 161 166 159 155 159 158 163 155 140 132 129 119 115 123 126 127 130 131 133 137 142 147 153 152 156 161 152 144 140 148 159 161 161 161 161 160 157 154 144 137 140 142 142 142 142 147 150 154 161 168 173 168 163 156 151 151 152 166 185 203 221 236 227 218 227 230 216 201 205
235 254 254 256 262 261 257 254 258 265 288 67 57 184 161 239 191 235 244 249 258 207 89 94 91 73 140 180 164 155 154 153 158 161 164 151 131 127 124 109 108 117 120 124 131 135 135 139 141 145 153 153 155 154 142 142 150 160 162 159 164 167 166 163 156 150 146 143 143 144 142 142 145 153 157 161 167 171 175 177 177 171 169 164 157 160 183 220 235 246 243 230 230 225 213 203 206
231 242 252 256 251 255 252 250 250 253 239 107 23 320 223 256 161 217 256 255 265 115 74 75 75 83 145 189 151 146 149 149 157 164 164 151 135 129 116 100 100 112 126 129 125 128 132 136 139 149 159 160 161 152 145 154 163 167 160 157 168 171 168 163 155 153 152 146 143 146 145 144 151 155 159 163 164 169 174 179 182 182 187 181 173 175 167 182 224 245 234 221 220 215 207 202 208
231 227 239 249 246 252 247 251 266 280 281 89 42 19 294 268 166 163 237 247 267 99 84 82 77 83 160 156 135 143 144 145 160 165 160 160 146 127 99 87 98 128 142 133 116 121 131 142 146 153 163 169 165 156 158 165 166 164 160 163 169 168 166 162 160 158 153 146 148 153 151 152 156 157 158 161 163 170 179 182 183 187 191 190 197 195 167 144 123 84 109 160 176 190 197 197 204
229 231 233 239 244 251 247 259 288 13 2 32 43 320 246 273 102 117 206 231 229 147 98 90 84 77 108 122 132 144 141 147 164 163 165 164 126 97 82 92 119 152 155 133 124 133 145 151 149 154 166 172 165 162 167 166 161 157 157 166 168 163 160 162 164 158 151 149 156 159 155 156 160 162 158 158 166 177 191 195 191 192 193 191 197 203 187 147 108 72 81 117 157 174 189 190 205
222 234 239 237 243 254 260 274 312 30 19 354 18 196 225 296 43 113 235 239 215 183 130 114 112 110 119 125 138 145 144 155 164 166 163 120 86 85 105 132 149 164 155 139 140 146 152 151 153 160 165 169 165 165 168 160 153 150 156 167 167 160 158 163 161 153 152 153 161 165 163 164 166 167 157 152 172 190 203 208 202 198 200 197 195 204 207 194 155 48 82 137 165 174 222 238 249
211 226 240 245 244 247 257 279 300 285 305 295 350 356 251 238 125 233 256 261 230 201 154 144 142 136 144 150 149 144 149 159 168 166 118 78 88 122 147 153 153 151 145 149 148 146 152 155 160 162 162 168 166 162 162 156 150 151 161 168 164 158 158 160 153 154 163 160 163 171 175 176 172 169 166 165 182 196 203 210 211 203 206 210 199 199 210 231 261 294 276 201 225 299 282 280 282
220 228 236 248 254 253 265 310 315 285 286 254 276 287 288 70 196 228 226 237 148 290 213 145 145 151 156 169 158 141 155 166 168 136 92 90 128 148 155 155 145 138 145 154 153 148 149 156 163 160 163 169 163 158 159 158 155 154 162 165 160 155 157 158 153 161 167 163 171 183 184 184 176 169 175 186 189 196 201 206 210 200 202 213 202 191 197 218 224 218 228 232 255 276 275 284 297
232 240 238 244 254 261 280 307 329 352 329 266 259 272 327 353 260 225 195 166 139 195 250 150 134 149 155 161 156 148 167 164 134 110 118 147 162 154 154 155 151 150 152 151 155 155 146 150 159 158 162 165 158 154 158 160 158 154 159 162 159 155 155 156 158 167 168 168 183 189 183 181 175 170 181 198 196 200 212 209 205 202 202 210 209 201 200 217 220 222 227 232 246 258 279 292 297
232 242 242 246 250 255 266 280 350 74 256 259 259 266 321 274 265 234 184 154 140 177 206 135 123 144 147 145 155 155 155 127 120 143 151 159 157 156 161 158 154 152 149 147 160 164 155 155 157 156 161 165 159 154 156 160 159 155 157 159 161 159 152 155 162 168 171 178 190 186 180 178 176 173 182 200 204 213 222 214 209 212 211 214 214 208 212 229 224 228 236 235 241 247 271 275 274
231 242 246 251 253 252 249 253 255 203 234 245 257 268 272 254 257 263 214 160 149 152 142 139 142 147 144 152 157 132 115 124 151 162 144 140 153 157 160 154 146 148 147 149 164 162 161 163 157 152 158 163 162 157 157 159 160 159 157 157 161 159 156 162 164 165 173 183 188 185 182 180 185 186 189 199 205 215 220 214 216 218 217 219 220 216 220 237 233 236 246 241 241 241 260 286 278
229 239 245 249 254 259 257 246 243 239 240 230 241 254 247 253 257 259 245 174 153 156 161 163 153 150 158 155 125 90 88 166 167 151 130 137 158 159 153 148 144 149 145 143 154 155 158 164 155 146 151 158 158 160 161 160 162 160 158 158 159 159 163 167 164 165 174 181 182 184 182 182 198 199 198 201 201 208 204 200 212 217 215 214 217 220 226 237 238 242 248 246 254 258 266 295 291
243 243 241 243 250 260 259 245 245 247 243 234 234 243 235 243 251 229 245 225 171 167 190 180 153 150 154 111 94 102 139 205 170 136 138 147 162 164 153 149 144 147 143 136 143 150 154 154 146 145 151 155 160 168 169 163 160 157 160 161 160 162 164 164 164 167 170 176 180 183 186 193 207 205 205 209 200 211 208 192 213 216 206 208 212 215 224 234 237 243 246 245 252 268 267 276 291
253 254 253 247 250 253 248 233 234 243 235 230 231 243 237 232 239 214 236 238 176 171 201 197 167 142 129 106 115 145 163 181 163 138 151 158 166 166 151 148 146 146 143 133 138 147 149 146 147 156 158 156 163 170 165 160 156 157 163 163 165 166 164 163 163 166 166 169 174 177 185 193 203 206 210 210 195 199 199 194 227 231 209 209 212 209 216 226 232 243 252 254 252 275 281 268 285
256 259 259 251 251 250 246 230 224 235 226 220 222 240 238 229 233 215 233 234 168 184 211 204 193 143 140 143 139 153 156 159 160 155 168 167 163 159 145 144 148 144 137 131 139 148 149 147 153 164 164 158 162 165 159 157 156 160 164 164 168 165 165 168 157 161 166 166 170 173 184 188 192 196 198 201 194 186 180 183 210 229 228 222 211 200 209 220 229 241 257 267 265 286 288 263 269
255 254 252 253 254 248 242 229 222 232 228 215 208 227 234 229 232 216 231 228 168 192 215 197 204 159 136 135 134 144 148 155 165 167 175 172 162 156 142 140 145 137 131 137 143 145 142 141 149 162 164 159 160 160 156 155 155 156 158 161 162 154 158 163 152 159 163 166 172 175 184 186 185 184 188 196 191 185 185 181 185 200 215 219 213 210 214 223 230 230 254 274 268 281 281 266 273
246 243 242 246 250 250 238 223 215 224 224 211 206 225 231 225 224 215 227 215 159 195 215 201 213 157 117 119 130 141 148 160 171 168 173 172 163 156 145 141 141 133 135 146 149 145 139 139 145 153 158 158 156 153 148 148 154 151 150 155 152 146 153 158 160 162 148 158 171 176 181 179 175 171 182 191 185 189 193 179 177 190 199 201 210 223 218 219 222 212 223 247 256 274 300 305 304
236 235 238 234 237 250 244 224 210 214 216 204 210 232 230 234 227 211 215 194 175 210 217 214 215 134 118 122 127 140 149 156 163 166 171 163 153 155 149 137 129 136 148 154 151 146 141 140 144 149 153 155 151 147 147 150 153 147 145 150 144 137 143 154 163 158 149 159 165 172 170 165 165 165 179 187 175 180 188 180 182 191 193 194 210 224 215 203 206 213 229 236 245 282 332 334 331
221 226 237 237 234 238 247 235 207 203 213 203 208 229 226 238 238 217 209 190 188 210 210 214 203 124 123 131 129 145 144 147 166 174 170 152 146 151 139 126 127 149 161 156 150 148 143 140 144 151 152 152 152 150 153 149 140 139 138 137 134 133 139 144 149 145 136 139 146 149 151 156 160 164 177 178 164 167 182 191 192 186 185 195 207 213 207 190 184 201 253 270 268 104 30 356 350
220 221 230 240 241 235 237 243 207 191 208 208 200 219 238 237 241 252 225 190 185 202 204 213 183 123 128 137 136 149 146 157 176 176 169 154 148 138 124 128 148 170 168 152 149 150 144 140 144 149 146 144 146 145 148 140 129 131 124 120 126 131 132 130 133 134 124 119 127 132 133 134 140 157 167 160 162 168 181 191 187 181 184 195 200 197 197 193 188 185 184 292 317 106 40 356 350
220 215 221 231 243 242 233 244 210 180 199 214 197 202 236 245 243 275 249 174 176 196 199 216 173 131 135 145 147 157 157 169 181 175 170 167 150 126 126 148 171 181 169 150 151 149 142 141 143 145 140 137 138 138 141 133 120 114 108 112 120 120 116 117 123 125 120 123 131 126 119 116 121 132 138 147 158 163 179 191 185 184 191 197 193 188 184 187 198 175 162 174 246 343 68 75 9
239 240 233 221 233 241 234 247 214 175 188 209 208 205 219 243 241 246 223 144 188 204 190 223 182 136 142 156 154 162 167 170 180 177 165 163 145 125 138 162 177 178 165 153 151 145 138 137 137 135 135 134 132 130 131 129 123 117 116 121 122 120 117 117 123 122 120 123 129 125 119 116 114 119 126 137 150 160 179 188 182 186 194 192 181 177 172 182 199 171 153 165 160 129 112 114 188
263 286 269 229 225 239 230 239 210 175 188 202 210 221 210 227 241 219 172 165 223 223 193 230 203 152 155 158 153 166 172 169 177 174 156 154 150 136 146 165 172 167 159 155 148 141 140 137 130 127 127 125 119 116 115 116 118 120 123 123 122 121 120 122 117 113 116 114 115 115 114 116 115 118 122 121 130 152 173 170 170 177 181 179 167 162 169 181 186 159 118 116 124 112 104 105 108
270 289 288 246 216 236 234 233 209 171 185 204 199 223 220 214 232 224 187 178 207 221 203 226 220 191 179 162 160 169 164 168 171 148 129 180 169 140 148 165 162 151 152 155 144 137 140 137 126 122 122 119 113 112 110 108 116 123 122 122 128 128 130 137 122 108 111 107 104 106 109 114 115 115 115 112 108 105 128 147 159 166 157 157 155 151 154 162 166 154 128 115 112 100 100 112 104
271 271 280 270 217 225 233 229 217 171 172 218 194 209 229 224 228 227 211 187 186 201 206 225 223 212 207 170 159 166 167 166 142 101 141 220 184 138 148 166 150 134 145 152 145 138 139 137 128 121 121 122 120 119 114 112 122 125 115 117 133 131 124 122 117 114 115 112 109 107 109 111 115 119 116 114 109 100 106 117 136 154 152 151 151 144 141 149 157 152 148 128 115 111 101 128 136
263 260 258 277 253 233 230 205 189 140 146 247 225 221 226 231 232 220 226 219 184 180 203 226 222 217 220 167 155 166 167 143 110 137 206 209 175 140 148 159 133 128 143 149 146 140 136 133 125 120 122 125 126 124 120 121 126 118 98 94 109 112 107 103 108 115 114 117 114 105 105 104 108 111 107 109 111 112 117 113 119 141 155 156 149 144 151 160 149 134 138 127 129 139 114 129 157
243 251 248 264 266 249 221 160 154 140 155 212 252 259 237 231 232 205 227 240 196 176 201 221 220 216 192 141 152 150 123 108 125 200 209 187 165 144 144 143 124 133 144 142 136 126 126 126 122 124 123 125 128 129 129 129 124 103 81 80 89 97 101 104 115 119 120 125 117 106 104 103 105 104 97 96 98 105 110 111 121 122 122 135 138 139 142 146 132 122 132 135 140 145 134 143 174
241 238 243 257 270 269 247 183 168 193 191 180 206 243 241 233 237 219 227 230 190 180 209 216 221 210 145 125 141 117 105 129 183 208 189 170 163 134 133 134 125 134 136 131 127 121 125 128 127 129 125 126 131 130 131 130 122 97 76 70 79 91 109 131 133 129 128 125 118 113 109 106 109 105 99 94 90 92 93 94 109 109 100 101 103 101 98 98 104 104 111 119 122 133 137 144 156
248 230 226 245 260 272 273 228 167 209 230 194 199 231 244 225 229 228 226 216 189 199 215 211 223 209 141 127 133 109 116 156 203 220 167 170 161 118 117 120 122 132 127 125 131 132 139 138 131 129 127 130 135 135 136 133 122 102 84 79 103 140 167 147 138 134 118 111 112 113 112 113 113 108 108 105 95 88 88 87 93 103 109 106 93 85 84 79 85 91 88 90 102 113 123 141 151
247 238 215 225 241 256 267 257 209 216 233 211 201 220 245 236 224 216 214 214 199 202 207 203 226 205 127 121 121 115 137 170 205 226 173 167 129 110 120 108 115 128 125 125 132 136 141 137 129 128 130 136 140 141 139 129 114 103 110 168 206 204 174 137 134 131 115 117 125 134 135 130 122 116 117 114 109 103 95 87 87 91 97 111 104 92 87 82 83 90 92 94 98 99 101 125 143
237 248 243 224 222 236 249 251 238 227 231 228 211 216 235 248 239 211 207 215 204 202 204 201 221 189 119 120 124 126 154 189 209 225 134 89 80 105 141 141 122 125 125 126 130 134 137 135 133 133 137 145 145 141 134 124 119 126 155 216 225 179 150 143 148 138 135 142 147 150 139 126 115 108 107 105 109 114 107 96 94 86 73 91 106 98 90 87 85 83 87 93 96 94 92 100 109
235 246 265 257 217 225 236 240 238 227 228 238 224 215 234 249 235 201 206 217 205 201 206 203 209 172 129 138 152 145 158 194 212 199 83 83 85 104 133 138 125 115 119 125 130 137 139 142 146 142 141 146 145 145 139 137 149 162 183 221 194 150 146 160 162 152 155 161 157 143 125 123 119 106 99 95 93 100 104 103 103 93 74 79 94 101 100 95 89 83 83 88 90 90 88 87 92
232 233 252 257 229 223 224 228 239 235 232 240 229 210 221 252 233 197 213 216 196 197 209 205 193 149 130 144 152 147 157 182 167 99 88 95 105 111 115 131 133 120 126 133 136 142 144 149 155 148 145 148 151 157 154 154 170 178 188 201 173 153 159 169 164 164 168 167 160 148 141 138 125 108 97 96 93 87 92 99 102 100 91 87 93 104 106 101 97 92 89 88 88 88 86 85 90
225 226 235 241 229 221 223 221 227 235 231 238 238 220 216 241 240 205 213 196 187 203 210 189 154 129 137 151 140 137 151 155 109 97 102 106 109 111 119 152 157 139 141 146 145 149 149 153 157 151 151 157 161 167 168 169 176 180 184 182 168 162 171 175 171 174 174 170 169 160 153 144 126 119 111 107 107 95 90 97 102 103 98 94 95 98 104 106 103 100 96 92 90 89 88 87 89
224 215 221 236 224 210 222 220 215 228 229 229 238 237 228 228 221 139 126 159 210 202 172 130 128 131 147 152 133 131 144 127 101 106 120 122 119 126 142 161 161 153 156 155 155 159 159 161 161 158 161 165 167 172 175 175 175 177 178 175 171 171 177 180 181 184 179 176 178 167 157 152 143 136 126 120 120 114 107 106 108 108 102 100 99 95 101 108 104 98 97 93 91 90 90 89 85
227 227 219 221 222 218 222 221 218 226 229 225 224 243 246 178 87 115 127 64 23 110 121 119 137 137 137 139 134 134 133 112 105 118 129 130 140 154 161 164 161 161 164 162 160 162 164 167 166 164 166 169 171 176 177 176 175 173 172 174 175 174 178 182 184 187 184 181 181 173 169 165 153 142 137 133 128 122 116 111 111 108 104 103 99 90 93 101 100 96 95 93 93 93 92 89 85
210 226 235 226 215 222 229 227 236 241 236 228 203 209 249 153 99 72 105 90 58 72 86 96 124 134 131 135 137 125 109 98 106 125 125 130 142 149 153 158 160 161 162 161 162 162 163 170 171 169 170 173 175 177 177 176 175 172 171 175 174 173 177 182 185 187 186 184 182 179 175 165 155 149 146 139 130 125 119 113 113 110 107 105 100 93 91 95 97 96 95 94 94 93 90 86 83
204 212 230 234 214 212 226 230 242 312 297 262 215 201 74 130 171 123 100 104 95 93 91 99 116 127 133 142 131 102 95 107 125 116 108 117 128 133 142 148 150 156 159 158 160 162 165 171 173 172 173 176 177 176 174 173 172 171 171 171 171 172 174 178 182 184 185 183 180 182 175 163 159 154 148 141 132 126 120 115 114 111 110 109 107 105 100 99 99 99 98 95 94 93 91 88 85
227 222 221 222 216 207 204 220 192 167 247 246 192 136 91 134 189 177 150 145 123 117 106 97 98 95 96 120 113 96 103 124 124 107 108 123 135 130 136 140 144 154 163 160 159 164 170 173 172 170 171 172 174 173 171 170 169 169 168 168 170 172 171 176 180 178 181 183 181 181 171 162 161 156 150 146 136 127 122 120 118 115 116 114 110 107 104 103 101 99 98 96 95 94 92 89 87
221 234 249 255 228 203 180 221 203 215 250 232 170 163 167 200 199 159 164 180 155 104 77 75 87 87 65 76 94 100 114 124 119 120 134 202 184 139 129 132 142 152 159 162 163 167 172 174 170 166 165 165 168 168 166 167 167 166 166 169 171 172 173 176 178 176 178 179 179 178 168 163 162 158 154 149 140 133 128 124 121 118 117 115 113 110 107 106 104 102 100 98 98 97 95 92 88
230 236 356 310 234 208 208 218 190 209 242 245 210 197 191 236 196 161 170 165 115 82 74 78 83 83 67 81 106 117 120 123 133 145 154 175 167 144 138 140 143 152 155 152 157 164 166 170 168 164 165 163 163 164 165 166 165 165 169 171 171 172 175 175 174 175 176 176 179 177 169 168 164 162 160 153 147 142 135 131 128 125 122 117 114 111 109 107 105 102 100 102 102 99 96 95 91
235 244 227 199 181 218 251 258 244 228 223 233 234 216 156 8 339 152 134 110 92 77 81 87 66 53 57 76 100 117 123 134 149 152 151 150 144 142 144 142 141 151 151 142 150 166 164 163 163 163 167 166 163 163 166 168 168 169 172 173 173 172 173 175 175 174 174 175 177 175 171 171 167 165 164 157 155 152 146 142 136 130 126 122 118 116 114 110 105 104 103 103 104 100 95 94 92
227 232 235 225 197 194 208 227 250 254 248 235 239 223 79 14 350 72 104 107 119 116 97 99 88 56 62 71 76 121 145 151 153 146 143 143 141 139 137 132 128 133 138 138 149 165 163 163 163 160 162 164 163 165 168 171 174 175 176 175 174 174 173 175 175 173 174 175 174 173 172 172 171 170 168 165 165 163 157 151 144 140 136 131 129 124 119 114 112 113 108 101 102 101 99 97 92
234 220 220 232 226 204 212 227 232 246 261 265 262 147 100 33 11 78 103 116 132 136 136 143 144 158 160 134 145 186 169 144 137 135 136 139 141 139 136 133 126 126 139 147 152 157 162 165 160 156 157 160 163 166 170 174 176 178 181 178 176 176 175 177 176 173 175 174 172 171 171 172 172 173 174 174 174 171 167 160 152 149 144 140 139 132 128 128 125 122 114 106 102 100 101 100 90
Height
762 763 763 764 763 764 762 761 774 768 766 774 760 753 739 719 714 710 706 702 706 702 694 696 698 702 707 714 719 725 730 732 737 742 755 745 732 739 739 740 744 747 752 755 757 759 761 763 765 766 768 769 771 773 775 777 779 781 782 784 786 788 789 791 792 794 796 797 799 800 801 802 802 803 804 805 805 806 807 808 809 809 810 811 812 812 813 814 814 814 815 815 815 816 816 816 816
762 763 763 764 762 766 761 757 776 770 767 775 755 746 731 712 712 709 706 705 708 701 693 696 698 701 705 707 708 721 732 730 727 731 736 731 734 741 741 745 747 749 753 756 759 760 762 764 766 767 769 771 773 775 777 779 781 782 784 786 787 789 791 793 794 796 797 799 800 801 802 803 804 804 805 806 806 807 808 808 809 810 811 812 813 813 814 815 815 815 816 816 816 817 816 816 816
762 763 762 764 761 762 760 758 774 771 768 769 750 732 719 715 710 703 699 700 701 697 697 701 705 706 709 716 717 728 739 730 725 728 729 730 736 741 744 746 748 753 754 757 760 761 764 765 767 769 770 772 774 776 778 780 782 784 786 787 789 791 793 794 796 797 799 801 802 803 804 804 805 806 807 807 808 808 809 809 810 811 812 812 813 814 815 815 816 816 816 817 817 817 817 817 817
761 762 760 761 761 763 764 765 767 767 766 757 741 719 709 711 703 698 697 699 699 699 703 704 712 709 713 731 728 733 741 733 728 728 731 732 737 742 745 747 751 754 756 760 761 762 764 766 768 770 772 774 776 778 780 782 784 786 787 789 791 793 794 796 797 799 801 802 803 804 805 806 807 807 808 809 809 810 810 810 811 811 812 813 814 815 815 816 816 817 817 818 818 818 817 817 817
761 761 759 758 762 761 760 763 758 761 760 745 733 712 700 698 694 698 699 701 701 703 705 706 718 712 716 732 730 739 743 736 732 728 732 735 739 744 745 749 753 755 759 761 762 764 765 767 770 771 774 776 778 780 782 784 785 787 789 791 792 794 796 797 799 800 802 803 804 805 806 807 808 809 809 810 811 811 811 811 812 813 813 814 814 815 816 817 817 817 818 818 819 818 818 818 818
761 760 758 757 758 754 759 764 758 756 745 732 729 713 700 698 697 700 703 705 703 703 704 707 715 717 728 733 730 739 739 737 737 733 735 738 741 745 748 751 754 757 760 761 764 765 767 769 771 773 776 778 780 782 784 785 787 788 790 792 793 795 796 798 800 801 802 804 805 806 807 809 809 810 811 811 812 812 812 812 813 814 814 815 815 816 816 817 818 818 819 819 820 819 819 819 819
760 760 757 760 758 755 767 767 756 750 732 720 724 713 701 703 705 706 710 712 709 706 705 708 708 722 741 736 736 739 734 736 737 738 739 741 744 746 750 752 755 758 760 763 765 766 769 771 772 775 777 779 781 783 785 786 788 789 791 793 794 796 797 799 800 802 803 805 806 807 808 809 810 811 812 812 813 814 814 814 814 814 815 816 816 817 817 818 818 819 820 820 820 820 820 820 820
759 759 754 761 764 759 765 762 751 743 726 712 709 705 700 703 709 712 714 713 715 710 708 709 705 728 744 734 745 743 734 737 737 741 742 743 747 748 751 753 755 758 761 764 766 768 771 772 774 777 778 781 782 784 786 787 789 790 792 793 795 797 798 800 801 803 804 806 807 808 809 809 811 811 812 813 814 814 815 815 815 815 816 816 817 818 818 818 819 819 820 821 821 821 821 821 821
757 758 754 759 764 760 759 755 746 735 723 711 703 699 699 703 709 714 715 712 712 711 709 707 705 730 742 739 750 743 737 741 740 743 744 746 748 750 752 754 756 758 762 765 767 769 771 774 776 777 780 782 784 786 787 789 790 791 793 795 797 798 799 801 802 804 805 807 808 808 809 810 811 812 813 813 814 815 815 816 816 816 816 817 818 818 819 819 819 820 820 821 821 822 821 821 822
755 756 756 759 761 762 758 750 741 730 719 709 701 696 698 703 708 713 717 715 710 710 707 700 706 728 740 746 751 743 742 743 742 746 746 749 749 752 754 755 757 759 763 765 768 771 773 776 776 779 781 783 785 787 788 790 791 793 795 796 798 799 801 802 804 806 807 808 808 809 810 811 812 812 813 814 815 815 816 816 816 817 817 818 818 819 819 820 820 820 821 821 822 822 822 822 822
757 753 753 760 762 763 757 746 735 724 713 704 697 694 699 704 711 715 715 716 709 710 707 701 715 729 737 747 750 745 743 744 745 747 748 750 751 753 755 756 759 760 764 766 770 772 775 777 778 781 782 785 786 787 789 790 793 794 796 798 800 801 802 804 805 807 808 809 809 810 811 812 812 812 814 814 815 816 816 817 817 817 817 818 819 819 820 821 821 821 822 822 822 822 822 823 822
759 753 752 764 762 756 747 740 730 717 709 704 699 694 697 704 714 718 716 717 711 711 708 705 717 725 738 748 748 745 743 746 747 748 750 751 753 754 756 758 760 762 765 768 771 773 776 780 781 783 784 786 787 788 790 792 794 796 798 800 801 803 804 805 806 808 808 809 810 811 812 813 813 813 814 815 816 816 817 817 817 818 818 819 819 820 821 821 822 822 822 822 822 823 823 823 823
756 751 752 759 752 746 740 735 725 716 710 701 699 697 698 707 716 716 714 716 712 716 709 702 711 721 740 747 744 745 744 747 748 750 751 752 754 755 757 759 762 765 768 770 772 775 779 782 783 785 786 787 788 790 791 793 796 797 800 801 802 804 805 807 808 809 809 810 811 812 813 814 814 814 815 816 816 817 817 818 818 818 818 819 820 821 821 822 822 822 822 822 823 823 823 824 824
751 746 748 753 744 740 737 734 724 720 714 697 698 699 702 711 711 708 711 716 714 712 702 696 708 724 742 746 747 747 744 747 748 751 752 753 755 756 759 761 764 767 770 772 774 777 780 783 784 785 786 788 789 791 793 796 798 800 801 801 803 805 806 808 809 810 811 812 813 813 814 815 815 815 816 816 817 817 818 819 819 819 819 819 820 821 821 822 822 822 822 823 823 823 824 824 825
745 742 745 750 746 740 734 732 725 723 713 699 703 701 705 708 704 708 711 716 712 698 694 699 709 726 741 745 749 744 741 746 748 751 752 754 756 757 761 763 767 769 772 775 777 780 781 784 784 786 787 788 790 792 795 798 800 801 801 802 804 805 807 808 810 811 812 813 814 814 815 815 816 816 817 817 817 818 819 820 820 820 819 820 821 821 821 822 822 822 823 823 823 824 824 825 825
739 740 747 752 750 745 735 727 723 725 714 704 706 699 709 707 700 711 706 707 709 695 699 710 714 724 735 739 740 736 738 745 748 752 753 755 757 759 762 765 769 771 774 777 779 781 782 785 786 788 789 789 791 794 797 798 799 800 801 803 805 806 808 810 811 812 813 814 815 815 815 816 816 817 817 818 818 819 820 821 821 820 820 820 821 821 821 822 822 822 822 823 823 824 825 825 826
736 742 753 754 750 745 733 724 720 719 709 705 706 700 713 711 701 706 699 701 707 704 711 718 719 723 730 732 730 732 738 744 748 752 753 755 758 761 765 768 772 774 775 777 780 782 783 787 788 789 789 790 791 794 796 797 798 800 802 804 805 807 809 811 812 813 814 815 816 816 816 816 817 818 818 818 818 820 820 821 821 821 821 821 821 821 822 822 822 823 823 823 823 824 825 825 826
739 747 756 755 748 738 725 717 709 706 705 704 708 708 715 714 706 705 705 709 709 712 721 722 724 726 726 726 728 733 739 744 749 752 753 755 757 763 769 772 775 775 774 776 780 782 784 786 787 788 789 789 791 793 794 795 799 801 803 804 805 808 809 811 812 813 815 815 816 816 816 817 817 818 818 819 819 820 821 821 821 821 821 821 821 821 822 822 823 823 823 823 823 824 825 825 826
741 746 751 749 740 727 712 706 700 704 710 707 709 712 714 713 707 706 715 720 715 722 730 728 732 734 729 728 732 736 740 746 750 752 753 755 760 767 773 775 774 772 773 777 779 780 781 783 785 787 788 788 790 792 793 796 799 802 804 804 805 808 810 811 812 814 815 816 817 817 817 817 817 818 819 820 821 821 821 821 822 822 822 822 822 822 822 823 823 823 823 824 824 824 825 826 826
738 741 748 742 729 721 708 702 699 704 712 712 712 712 712 710 707 710 718 721 718 725 734 736 740 741 737 734 736 739 744 749 751 753 754 759 767 771 773 772 770 770 774 777 777 778 779 781 784 786 788 790 791 792 794 797 800 802 803 803 805 808 810 811 812 814 816 817 817 817 817 817 818 818 820 821 821 822 822 822 823 823 823 822 823 823 823 823 823 823 824 824 824 825 825 826 827
734 737 743 733 721 720 710 701 701 703 709 714 715 715 714 708 706 713 718 726 729 724 727 735 738 739 740 739 738 741 747 750 751 754 759 767 771 771 769 768 769 772 774 776 777 779 781 782 783 784 787 789 791 792 794 797 800 803 803 802 805 808 810 811 812 815 816 817 816 817 816 816 818 819 820 821 821 822 822 823 823 823 824 823 823 823 824 824 823 823 824 824 825 825 826 827 828
732 732 732 726 719 719 708 700 704 705 709 715 718 719 714 708 710 714 717 731 738 727 722 727 730 733 737 739 740 743 748 751 752 757 765 769 767 765 767 768 771 773 774 775 777 780 782 782 783 784 786 789 791 793 795 798 800 802 803 803 805 807 809 811 813 814 815 816 816 815 816 816 818 819 819 820 821 822 823 824 824 824 824 824 824 824 824 824 823 823 824 824 825 826 826 827 828
734 732 725 722 719 718 710 704 707 709 715 721 721 716 710 714 716 710 713 724 728 723 719 721 725 728 733 737 740 744 749 752 755 760 761 760 761 763 766 769 769 770 772 774 777 780 781 782 784 785 786 789 791 794 795 798 800 802 804 805 806 807 809 812 813 814 815 815 815 814 815 816 817 818 819 819 821 823 823 823 823 824 824 824 824 825 825 824 823 823 823 824 824 825 826 826 827
731 732 724 720 716 715 712 708 709 714 721 721 716 712 714 723 719 709 713 717 717 720 718 719 724 728 733 738 739 743 749 755 757 758 756 756 759 762 764 766 767 768 770 773 775 778 780 781 783 786 788 790 792 793 795 797 800 802 805 806 806 807 809 811 812 813 814 813 813 814 814 815 816 818 819 820 821 822 823 823 823 824 824 824 824 824 824 823 823 822 823 823 824 825 825 825 827
727 729 723 718 714 711 708 708 711 716 719 717 715 717 720 720 714 712 714 713 713 718 720 721 725 729 734 738 740 745 755 758 756 755 757 758 760 761 763 765 766 767 769 772 773 776 779 780 783 787 788 790 792 793 795 797 799 801 804 806 806 807 809 810 811 812 812 812 812 813 814 815 816 818 820 821 822 823 823 823 823 823 823 823 823 823 823 822 822 822 822 823 824 825 825 825 826
723 723 721 718 716 710 707 710 712 715 716 716 720 723 721 715 713 717 713 709 710 713 719 721 723 730 733 738 744 753 765 763 755 755 757 759 760 760 762 765 766 768 770 772 774 777 779 782 785 788 791 792 792 792 794 797 798 800 803 805 806 807 809 810 811 812 812 812 812 813 814 815 815 818 821 822 823 823 823 824 823 822 822 822 822 822 822 822 822 822 822 823 824 825 826 827 827
716 717 716 715 715 711 709 713 713 715 715 715 722 726 721 714 717 724 714 705 706 710 716 717 721 729 732 739 750 757 765 764 756 755 757 758 759 759 761 764 766 769 771 774 776 779 781 784 787 788 793 795 793 792 794 796 798 800 803 805 806 807 808 810 811 812 812 813 813 813 815 815 815 818 821 822 822 822 822 822 821 821 821 821 821 821 822 822 821 822 823 823 824 824 825 826 827
714 714 716 715 715 713 711 713 715 717 717 714 718 723 720 716 720 723 713 703 704 711 716 715 719 728 733 741 750 754 757 759 757 755 756 756 757 759 762 764 767 769 772 775 777 780 783 786 789 790 793 794 793 793 795 797 799 801 803 805 806 807 808 809 810 812 813 813 813 814 815 815 816 819 821 822 823 823 822 820 818 819 820 821 821 821 821 822 821 822 823 823 823 825 825 825 826
714 714 721 722 717 717 713 711 714 716 717 711 714 728 727 722 721 715 709 703 703 712 716 715 717 724 734 741 747 751 753 755 755 755 755 755 756 758 761 764 767 770 773 777 778 781 785 787 790 791 792 793 792 793 795 798 800 802 804 805 806 807 807 808 809 811 812 813 813 814 815 818 819 820 820 822 823 823 823 822 820 819 820 821 821 822 822 822 822 823 823 823 824 825 826 826 826
719 717 724 726 725 724 713 709 713 714 714 706 715 740 737 724 717 708 704 701 705 715 716 715 716 720 731 738 744 747 750 753 753 753 755 755 756 758 761 765 768 771 774 778 778 780 784 786 788 789 790 791 792 794 795 798 800 802 804 806 806 807 808 808 809 811 812 812 814 815 817 819 821 820 820 821 822 822 822 823 822 821 821 821 821 822 822 822 822 823 824 824 825 826 826 827 827
722 724 725 727 734 729 711 706 712 716 713 703 717 742 736 720 713 705 701 700 707 716 716 715 715 720 731 737 742 745 747 750 750 752 754 754 756 759 762 766 769 773 775 777 778 779 782 784 786 788 789 791 792 795 797 799 801 802 805 806 807 808 808 809 810 811 812 813 815 816 818 819 820 820 820 820 820 821 821 821 822 822 821 821 821 821 822 822 822 823 824 825 826 826 826 827 827
723 733 735 729 733 729 711 702 707 715 712 703 719 737 730 717 707 701 699 700 709 717 716 716 715 722 732 736 740 744 745 747 749 751 753 754 757 760 763 767 770 772 773 775 777 778 781 783 786 789 790 790 792 795 797 800 802 803 805 806 807 808 809 810 811 812 813 814 816 817 818 819 819 819 819 819 820 820 820 820 820 821 821 821 821 821 822 822 823 823 824 825 826 826 826 827 827
724 732 739 731 728 727 716 702 696 704 710 706 716 728 726 716 703 696 695 699 708 714 716 715 716 725 733 735 739 743 745 748 749 751 753 755 757 760 764 768 771 770 770 773 776 778 780 782 785 789 792 792 793 795 797 800 802 804 805 806 808 808 810 811 812 813 814 815 816 817 818 819 819 819 819 819 819 819 819 819 820 821 821 821 821 821 821 822 823 823 824 825 825 825 826 826 826
729 727 733 729 722 722 718 706 692 695 707 709 712 720 721 712 701 695 690 694 706 712 715 713 715 727 733 734 739 742 745 749 750 751 753 756 757 760 764 768 769 767 769 773 776 778 780 782 785 788 792 794 796 796 798 801 802 804 805 807 808 809 810 811 812 814 814 816 817 818 818 819 819 819 819 819 818 818 819 819 819 820 820 820 820 820 821 822 822 823 823 824 824 824 825 826 825
727 726 728 727 720 716 713 705 690 691 706 709 712 720 719 710 703 696 685 688 704 710 712 711 713 726 732 733 739 741 745 749 749 750 753 756 757 759 763 765 765 765 769 774 776 778 780 783 785 788 792 795 797 798 800 802 803 804 805 807 808 809 811 812 813 814 815 816 817 818 818 819 819 819 819 819 818 818 818 819 819 820 820 819 820 820 821 822 822 823 823 824 824 824 824 824 825
717 715 716 720 719 713 705 697 684 686 704 710 711 717 718 713 706 699 692 694 704 707 708 710 712 723 731 733 737 740 744 747 748 749 753 756 758 760 762 762 764 767 772 775 777 779 781 784 786 788 792 794 795 797 800 803 804 805 806 807 808 809 811 812 813 814 815 816 816 817 818 818 819 819 819 819 819 819 819 819 819 819 820 819 819 820 821 821 822 822 823 823 823 824 824 824 824
711 710 709 708 711 710 698 690 682 682 700 709 708 711 712 711 706 699 699 703 707 707 709 711 710 718 727 730 734 738 742 744 745 748 753 757 759 759 761 762 765 769 773 775 777 780 783 786 787 788 791 793 793 795 798 801 803 805 806 807 808 809 811 812 813 814 815 815 816 817 818 818 819 819 819 819 819 819 819 820 820 820 820 820 819 820 820 821 822 822 822 823 823 824 824 824 825
713 715 713 704 703 705 693 686 682 682 699 706 704 709 709 707 704 698 697 705 710 708 711 713 709 712 718 725 731 735 740 742 744 751 757 760 759 759 761 763 766 770 774 776 778 781 783 787 789 790 792 793 794 795 797 799 801 803 804 805 807 808 810 811 813 814 815 816 816 817 818 819 819 819 819 818 819 819 820 820 820 820 820 820 820 820 821 821 822 822 822 822 824 824 824 825 825
718 718 718 708 698 698 693 683 679 683 700 705 702 709 711 703 701 698 696 700 705 705 708 710 709 710 713 721 729 732 737 742 747 756 759 758 757 759 762 763 767 771 774 777 779 781 784 788 790 791 793 794 794 795 796 798 800 801 803 805 806 807 809 811 813 814 815 816 817 818 819 819 819 819 818 818 819 820 820 820 821 821 821 820 821 821 821 821 822 822 823 823 824 824 825 825 825
722 721 721 715 699 698 701 693 685 688 701 706 703 708 709 705 701 697 694 694 697 701 705 705 706 708 711 717 725 729 735 744 753 757 754 752 755 758 762 764 768 772 774 777 779 782 786 789 791 792 793 794 794 796 797 798 799 801 802 804 805 807 809 811 813 814 815 816 817 818 819 819 819 819 819 819 819 820 820 820 821 821 821 821 821 821 821 821 822 822 823 823 824 825 826 825 826
724 721 721 717 703 698 700 700 696 697 705 707 710 719 716 707 705 701 696 694 694 700 704 705 705 705 710 717 724 730 738 749 755 753 749 750 753 757 761 765 769 772 774 777 780 784 788 790 791 792 793 793 794 796 797 798 799 801 802 803 806 808 810 812 813 814 815 816 817 818 819 820 820 820 820 820 819 820 820 820 821 821 821 822 822 822 822 822 822 823 823 824 825 825 826 826 827
726 720 716 713 708 701 696 698 703 713 721 711 716 741 734 709 705 705 701 696 696 701 705 707 706 705 713 722 727 735 745 751 750 745 747 750 752 756 762 766 770 773 775 779 782 785 788 790 790 790 791 793 795 796 797 798 799 800 801 804 808 809 811 813 813 814 815 816 817 818 819 820 820 821 820 820 820 819 819 820 821 821 822 822 822 822 822 822 822 823 823 824 825 825 825 825 826
731 716 709 710 709 707 702 701 710 726 731 714 713 741 741 718 710 707 702 699 701 705 706 707 707 707 716 724 728 739 746 747 745 744 747 750 752 758 765 768 771 774 776 779 781 783 786 789 788 789 791 792 794 795 795 797 799 799 801 806 809 810 812 813 814 815 816 816 818 819 820 820 821 821 821 821 820 820 820 820 820 821 821 821 822 822 822 822 823 823 824 824 824 825 825 825 826
728 707 702 708 708 711 709 705 712 718 720 715 711 724 737 730 713 700 698 702 706 708 708 710 707 708 721 728 730 738 743 742 742 744 747 751 756 763 769 773 773 774 776 779 781 783 786 787 788 789 791 793 794 794 794 796 797 799 802 807 809 810 812 813 815 815 816 818 819 820 820 821 821 821 821 821 820 820 820 820 820 821 821 822 822 822 822 823 823 824 824 824 825 825 825 825 827
717 701 698 700 702 708 705 706 713 712 720 730 718 715 736 736 709 694 697 704 710 711 710 711 710 714 727 733 733 738 741 741 739 741 748 755 763 770 773 775 777 777 778 780 782 784 785 786 787 788 790 792 793 793 794 795 797 800 804 807 809 810 812 814 815 816 817 818 819 820 820 821 821 821 821 821 820 820 820 820 821 822 822 822 822 822 823 823 823 823 824 824 825 825 825 826 827
705 700 699 694 696 702 704 710 713 714 730 740 724 717 737 738 711 700 706 707 709 710 709 710 710 717 727 730 733 738 741 741 739 744 754 762 769 774 774 777 780 781 781 782 783 784 784 784 785 787 788 791 792 794 795 796 799 802 804 806 809 810 812 814 815 816 817 819 820 820 820 821 821 821 821 821 820 820 820 820 822 822 823 822 822 823 823 824 824 824 824 824 825 826 826 826 827
699 700 703 702 701 700 705 708 709 726 742 736 721 716 733 740 716 702 707 704 703 707 708 707 708 715 722 725 729 736 740 741 744 753 761 765 769 772 776 781 782 782 783 783 783 783 783 783 784 785 786 790 793 795 796 798 801 803 804 806 808 810 812 814 816 817 817 819 819 820 820 820 821 821 821 821 820 820 820 821 822 823 823 823 823 824 824 824 825 825 825 825 826 826 827 827 828
698 703 707 714 715 709 714 714 717 742 751 730 714 708 722 740 723 701 700 696 695 702 705 706 712 719 721 722 727 734 739 742 748 759 763 764 768 770 774 781 781 780 781 783 783 783 782 782 782 783 785 789 793 795 797 799 801 803 805 807 808 810 813 815 816 817 818 818 819 819 820 820 820 821 822 822 821 821 821 822 822 823 824 824 824 824 825 825 825 826 826 826 826 827 827 828 828
701 706 713 728 734 731 736 736 734 744 740 720 709 708 719 729 717 702 702 699 696 698 702 707 715 722 723 723 728 734 738 743 751 759 762 763 767 769 771 775 776 778 779 779 779 780 780 779 779 780 784 788 791 794 797 799 801 803 804 806 808 810 813 815 816 817 818 818 819 819 820 820 821 821 822 822 822 822 822 823 823 824 824 825 825 825 825 825 826 826 826 827 827 827 828 828 828
707 708 714 730 741 749 753 745 739 740 730 711 703 712 725 726 714 703 702 705 702 699 703 709 713 719 725 727 731 735 738 745 752 756 758 761 765 768 769 770 772 775 777 776 774 775 776 777 778 778 782 786 789 792 795 798 800 801 803 805 808 810 812 814 816 817 818 819 819 819 820 821 821 822 822 823 822 822 823 823 824 824 825 825 825 825 825 825 826 827 827 827 828 828 829 829 829
704 701 705 719 729 744 751 743 741 740 730 716 712 721 731 733 725 708 700 705 705 704 708 711 714 718 724 728 731 735 741 745 749 750 751 757 763 766 768 770 772 773 776 778 777 777 778 779 779 778 781 785 787 790 793 796 799 801 803 805 807 810 812 814 816 817 818 819 819 820 820 821 821 822 823 823 823 823 823 824 824 825 825 826 826 826 826 826 826 827 828 828 829 829 829 830 830
700 693 702 715 714 721 733 735 734 735 736 730 725 726 725 726 723 709 705 708 707 710 713 714 719 721 723 728 731 737 745 748 748 747 751 759 765 767 769 772 775 776 778 779 779 781 782 782 781 780 782 785 788 791 793 795 798 801 803 805 807 809 811 813 815 816 817 818 819 820 820 821 822 822 823 823 823 823 823 824 824 825 826 826 826 826 826 827 827 827 828 829 829 830 830 831 831
707 701 705 704 693 701 726 736 726 729 745 739 727 730 730 728 725 712 709 714 712 715 718 720 724 725 726 730 734 742 749 753 754 753 757 765 770 771 770 772 774 777 779 779 780 783 784 784 783 782 784 787 789 792 794 796 798 800 802 805 807 809 810 812 814 815 817 818 819 820 820 821 822 822 823 823 824 824 824 824 825 825 826 826 826 827 827 827 827 827 828 829 830 830 831 831 832
707 710 701 691 690 697 717 735 736 741 750 735 723 737 745 740 734 721 715 717 718 721 727 729 729 730 733 735 742 749 753 758 760 759 764 771 773 772 770 771 773 775 777 778 780 783 785 786 785 785 787 789 792 794 795 797 799 800 802 804 806 808 809 811 812 814 816 817 819 820 820 821 822 822 823 823 824 824 824 825 825 826 826 827 827 827 827 828 828 828 829 829 830 831 831 832 832
692 698 693 700 720 722 717 731 745 752 754 740 724 727 738 738 729 721 720 721 725 731 736 738 735 736 741 744 749 753 755 761 764 765 770 772 772 770 769 772 774 776 777 777 779 783 785 786 786 787 789 790 793 795 796 798 799 800 801 803 805 807 808 810 811 813 815 817 818 820 821 821 822 822 823 823 823 824 825 825 825 826 826 827 827 827 828 828 828 829 829 830 830 831 831 832 833
685 691 691 699 719 725 723 728 732 737 748 748 731 724 738 741 723 717 724 728 734 739 742 744 743 743 745 748 751 753 756 761 764 766 768 769 769 768 769 772 774 776 777 775 778 783 785 785 785 786 788 790 792 794 795 798 799 800 801 803 805 806 807 809 810 812 814 816 818 819 821 822 822 823 823 823 824 824 825 825 825 826 826 827 827 828 828 829 829 830 830 831 831 832 832 833 833
696 702 704 704 707 711 720 726 720 722 738 743 737 742 753 744 724 720 728 733 738 742 748 751 747 746 747 750 758 762 762 762 761 762 763 765 767 767 769 771 772 775 776 776 780 784 786 787 786 786 788 789 791 792 794 797 799 800 801 802 804 805 807 808 809 812 813 815 817 819 820 821 822 823 823 824 824 825 825 825 825 826 826 827 827 828 828 829 830 830 831 832 832 833 833 834 834
694 700 702 705 705 710 726 732 719 715 726 731 736 754 758 740 729 728 726 729 734 741 754 757 754 755 755 754 759 763 760 757 757 759 760 763 765 766 768 770 771 775 776 778 782 785 787 787 786 787 789 790 791 792 793 795 797 799 800 801 803 804 806 808 809 811 813 815 817 818 820 821 822 823 824 824 825 825 826 826 826 826 826 827 827 828 829 829 830 831 831 832 833 833 834 835 835